GW1094 Weather Reports


Display with metric or nautical units.
time (UTC)temp
F
wind
direction
speed
MPH
gust
MPH
rain 1hr
in
rain 24hr
in
rain mn
in
humidity
%
barometer
mb
20260904213524 69 136 0.0 1.0 0.00 0.10 0.10 95 4101.1
20260904213022 68 122 0.0 1.0 0.00 0.10 0.10 97 4101.1
20260904212520 68 122 0.0 1.0 0.00 0.10 0.10 97 4101.4
20260904212015 68 123 1.0 1.0 0.00 0.10 0.10 98 4101.4
20260904211510 68 121 0.0 0.0 0.00 0.10 0.10 98 4101.7
20260904211006 68 99 3.0 5.0 0.00 0.10 0.10 98 4101.7
20260904210505 68 124 0.0 0.0 0.00 0.10 0.10 99 4101.7
20260904210001 68 122 0.0 0.0 0.00 0.10 0.10 99 4101.7
20260904205456 68 116 0.0 0.0 0.00 0.10 0.10 99 4101.4
20260904204953 68 99 0.0 1.0 0.00 0.10 0.10 99 4101.4
20260904204448 68 132 0.0 0.0 0.00 0.10 0.10 99 4101.7
20260904203944 68 107 0.0 0.0 0.00 0.10 0.10 99 4101.7
20260904203440 68 132 1.0 1.0 0.00 0.10 0.10 98 4101.4
20260904202936 68 125 1.0 1.0 0.00 0.10 0.10 97 4101.7
20260904202432 68 112 2.0 3.0 0.00 0.10 0.10 97 4101.4
20260904201928 69 134 1.0 2.0 0.00 0.10 0.10 96 4101.4
20260904201423 69 148 0.0 0.0 0.00 0.10 0.10 96 4101.4
20260904200919 69 112 1.0 1.0 0.00 0.10 0.10 96 4101.4
20260904200417 70 153 2.0 2.0 0.00 0.10 0.10 94 4101.4
20260904195912 71 154 2.0 2.0 0.00 0.10 0.10 93 4101.4
20260904195410 70 135 1.0 2.0 0.00 0.10 0.10 93 4101.7
20260904194904 70 95 1.0 1.0 0.00 0.10 0.10 94 4101.4
20260904194404 71 137 2.0 2.0 0.00 0.10 0.10 94 4101.4
20260904193900 71 111 1.0 1.0 0.00 0.10 0.10 93 4101.4
20260904193354 71 138 2.0 2.0 0.00 0.10 0.10 92 4101.4
20260904192849 71 150 2.0 2.0 0.00 0.10 0.10 91 4101.4
20260904192345 71 127 0.0 1.0 0.00 0.10 0.10 92 4101.4
20260904191842 71 111 1.0 2.0 0.00 0.10 0.10 91 4101.7
20260904191338 71 124 1.0 2.0 0.00 0.10 0.10 93 4101.7
20260904190834 71 137 1.0 2.0 0.00 0.10 0.10 93 4101.7
20260904190330 71 147 1.0 2.0 0.00 0.10 0.10 92 4101.4
20260904185826 70 172 0.0 1.0 0.00 0.10 0.10 93 4101.4
20260904185321 70 65 0.0 0.0 0.00 0.10 0.10 92 4101.4
20260904184821 71 81 0.0 0.0 0.00 0.10 0.10 92 4101.4
20260904184316 71 140 0.0 1.0 0.00 0.10 0.10 93 4101.4
20260904183811 70 217 2.0 3.0 0.00 0.10 0.10 92 4101.7
20260904183306 70 94 2.0 3.0 0.00 0.10 0.10 92 4101.7
20260904182801 70 350 1.0 1.0 0.00 0.10 0.10 93 4101.4
20260904182256 70 155 0.0 1.0 0.00 0.10 0.10 93 4102.1
20260904181752 70 194 1.0 2.0 0.00 0.10 0.10 93 4101.7
20260904181252 70 344 0.0 1.0 0.00 0.10 0.10 93 4102.1
20260904180747 70 93 0.0 0.0 0.00 0.10 0.10 94 4102.1
20260904180243 70 93 1.0 2.0 0.00 0.10 0.10 93 4102.1
20260904175741 69 35 0.0 1.0 0.00 0.10 0.10 94 4102.1
20260904175240 70 61 4.0 7.0 0.00 0.10 0.10 93 4101.7
20260904174735 70 113 1.0 1.0 0.00 0.10 0.10 94 4101.7
20260904174231 69 118 0.0 1.0 0.00 0.10 0.10 94 4102.1
20260904173727 69 165 1.0 1.0 0.00 0.10 0.10 94 4101.7
20260904173227 69 130 1.0 1.0 0.00 0.10 0.10 95 4102.1
20260904172723 69 104 0.0 0.0 0.00 0.10 0.10 96 4102.1
20260904172222 69 164 2.0 3.0 0.00 0.10 0.10 95 4102.1
20260904171717 69 135 1.0 3.0 0.00 0.10 0.10 95 4102.1
20260904171212 69 101 2.0 3.0 0.00 0.10 0.10 94 4102.1
20260904170709 70 117 2.0 2.0 0.00 0.10 0.10 95 4101.7
20260904170204 69 130 2.0 2.0 0.00 0.10 0.10 95 4102.1
20260904165702 70 144 1.0 2.0 0.00 0.10 0.10 94 4102.1
20260904165156 71 139 1.0 1.0 0.00 0.10 0.10 93 4102.1
20260904164651 71 100 3.0 5.0 0.00 0.10 0.10 93 4101.7
20260904164146 71 151 1.0 2.0 0.00 0.10 0.10 95 4101.7
20260904163643 70 114 0.0 1.0 0.00 0.10 0.10 95 4101.4
20260904163138 70 129 1.0 1.0 0.00 0.10 0.10 94 4101.1
20260904162637 70 75 2.0 2.0 0.00 0.10 0.10 95 4101.1
20260904162132 70 215 1.0 2.0 0.00 0.10 0.10 95 4101.4
20260904161627 69 84 3.0 3.0 0.00 0.10 0.10 96 4101.4
20260904161122 69 124 1.0 2.0 0.00 0.10 0.10 97 4101.7
20260904160619 70 89 1.0 2.0 0.00 0.10 0.10 96 4102.1
20260904160114 69 88 3.0 3.0 0.00 0.10 0.10 99 4102.1
20260904155613 69 76 1.0 3.0 0.00 0.10 0.10 99 4102.1
20260904155102 68 135 1.0 2.0 0.00 0.10 0.10 99 4102.1
20260904154556 68 117 0.0 0.0 0.00 0.10 0.10 99 4102.4
20260904154051 68 117 0.0 0.0 0.00 0.10 0.10 99 4102.4
20260904153550 68 133 0.0 1.0 0.00 0.10 0.10 99 4102.4
20260904153047 68 150 1.0 1.0 0.00 0.10 0.10 99 4102.4
20260904152542 67 123 1.0 1.0 0.00 0.10 0.10 99 4102.4
20260904152038 67 146 3.0 3.0 0.00 0.10 0.10 99 4102.7
20260904151533 66 141 1.0 1.0 0.00 0.10 0.10 99 4102.4
20260904151027 66 145 2.0 2.0 0.00 0.10 0.10 99 4102.4
20260904150526 66 145 3.0 3.0 0.00 0.10 0.10 99 4102.4
20260904150021 66 145 3.0 3.0 0.00 0.10 0.10 99 4102.7
20260904145515 66 151 0.0 0.0 0.00 0.10 0.10 99 4102.7
20260904145011 66 141 1.0 2.0 0.00 0.10 0.10 99 4102.7
20260904144507 66 126 2.0 3.0 0.00 0.10 0.10 99 4102.7
20260904144003 66 147 1.0 1.0 0.00 0.10 0.10 99 4102.4
20260904143458 66 128 1.0 1.0 0.00 0.10 0.10 99 4102.7
20260904142955 66 137 1.0 2.0 0.00 0.10 0.10 99 4102.4
20260904142451 66 134 1.0 2.0 0.00 0.10 0.10 99 4102.4
20260904141950 66 114 0.0 0.0 0.00 0.10 0.10 99 4102.4
20260904141445 66 146 2.0 2.0 0.00 0.10 0.10 99 4102.1
20260904140942 65 117 2.0 3.0 0.00 0.10 0.10 99 4102.1
20260904140441 66 141 0.0 0.0 0.00 0.10 0.10 99 4102.1
20260904135941 65 152 1.0 2.0 0.00 0.10 0.10 99 4101.7
20260904135440 65 129 1.0 2.0 0.00 0.10 0.10 99 4101.7
20260904134936 65 140 0.0 0.0 0.00 0.10 0.10 99 4102.1
20260904134431 64 119 1.0 2.0 0.00 0.10 0.10 99 4101.7
20260904133925 65 100 0.0 1.0 0.00 0.10 0.10 99 4102.1
20260904133421 65 130 1.0 2.0 0.00 0.10 0.10 99 4102.1
20260904132916 64 118 1.0 2.0 0.00 0.10 0.10 99 4102.1
20260904132411 64 118 3.0 3.0 0.00 0.10 0.10 99 4101.7
20260904131910 65 141 0.0 1.0 0.00 0.10 0.10 99 4101.7
20260904131406 65 114 1.0 2.0 0.00 0.10 0.10 99 4101.7
20260904130901 65 100 0.0 0.0 0.00 0.10 0.10 99 4101.7
20260904130400 64 140 1.0 1.0 0.00 0.10 0.10 99 4101.7
20260904125855 63 137 0.0 0.0 0.00 0.10 0.10 99 4101.7
20260904125352 63 78 0.0 0.0 0.00 0.10 0.10 99 4101.7
20260904124850 63 141 0.0 0.0 0.00 0.10 0.10 99 4101.4
20260904124348 63 120 0.0 0.0 0.00 0.10 0.10 99 4101.1
20260904123843 63 123 0.0 0.0 0.00 0.10 0.10 99 4101.1
20260904123338 62 122 0.0 0.0 0.00 0.10 0.10 99 4101.4
20260904122833 62 123 0.0 0.0 0.00 0.10 0.10 99 4101.4
20260904122332 62 119 0.0 0.0 0.00 0.10 0.10 99 4101.4
20260904121827 62 119 0.0 0.0 0.00 0.10 0.10 99 4102.1
20260904121324 62 118 0.0 1.0 0.00 0.10 0.10 99 4102.1
20260904120820 62 124 0.0 0.0 0.00 0.10 0.10 99 4102.1
20260904120315 62 125 0.0 0.0 0.00 0.10 0.10 99 4101.4
20260904115810 61 125 0.0 0.0 0.05 0.10 0.10 99 4101.1
20260904115307 61 125 0.0 0.0 0.05 0.10 0.10 99 4101.1
20260904114806 61 125 0.0 0.0 0.05 0.10 0.10 99 4101.1
20260904114300 61 125 0.0 0.0 0.04 0.09 0.09 99 4101.1
20260904113755 61 127 0.0 0.0 0.04 0.09 0.09 99 4101.1
20260904113254 61 127 0.0 0.0 0.04 0.09 0.09 99 4101.1
20260904112749 61 127 0.0 0.0 0.04 0.09 0.09 99 4101.1
20260904112245 61 127 0.0 0.0 0.04 0.09 0.09 99 4101.4
20260904111741 61 129 0.0 1.0 0.04 0.09 0.09 99 4101.4
20260904111236 61 134 0.0 0.0 0.03 0.08 0.08 99 4101.7
20260904110732 61 135 0.0 0.0 0.03 0.08 0.08 99 4101.7
20260904110231 61 134 0.0 0.0 0.01 0.06 0.06 99 4102.1
20260904105726 62 135 0.0 0.0 0.04 0.04 0.04 99 4102.1
20260904105221 62 135 0.0 0.0 0.02 0.02 0.02 99 4102.1
20260904104716 62 147 0.0 0.0 0.00 0.00 0.00 99 4102.1
20260904104211 62 138 0.0 0.0 0.00 0.00 0.00 99 4102.1
20260904103709 62 138 0.0 0.0 0.00 0.00 0.00 99 4102.4
20260904103203 62 178 0.0 0.0 0.00 0.00 0.00 99 4102.1
20260904102659 61 146 1.0 2.0 0.00 0.00 0.00 99 4102.1
20260904102154 61 62 0.0 0.0 0.00 0.00 0.00 99 4102.1
20260904101651 61 62 0.0 0.0 0.00 0.00 0.00 99 4102.1
20260904101146 61 54 0.0 1.0 0.00 0.00 0.00 99 4101.7
20260904100642 61 54 0.0 0.0 0.00 0.00 0.00 99 4101.7
20260904100137 60 54 0.0 1.0 0.00 0.00 0.00 99 4101.4
20260904095636 60 54 0.0 0.0 0.00 0.00 0.00 99 4101.4
20260904095131 60 52 1.0 1.0 0.00 0.00 0.00 99 4101.4
20260904094626 60 45 0.0 0.0 0.00 0.00 0.00 99 4101.4
20260904094121 60 33 0.0 1.0 0.00 0.00 0.00 99 4101.4
20260904093618 60 88 0.0 1.0 0.00 0.00 0.00 99 4101.4
20260904093113 60 75 1.0 1.0 0.00 0.00 0.00 99 4101.1
20260904092609 60 53 0.0 1.0 0.00 0.00 0.00 99 4101.1
20260904092105 60 252 0.0 1.0 0.00 0.00 0.00 99 4101.1
20260904091601 60 196 0.0 1.0 0.00 0.00 0.00 99 4101.1
20260904091100 60 200 1.0 1.0 0.00 0.00 0.00 99 4101.1
20260904090556 60 204 1.0 1.0 0.00 0.00 0.00 99 4101.1
20260904090052 60 207 0.0 0.0 0.00 0.00 0.00 99 4101.1
20260904085552 60 209 0.0 0.0 0.00 0.00 0.00 99 4100.7
20260904085051 60 211 0.0 0.0 0.00 0.00 0.00 99 4100.7
20260904084547 60 192 0.0 1.0 0.00 0.00 0.00 99 4100.7
20260904084043 60 192 0.0 0.0 0.00 0.00 0.00 99 4100.4
20260904083539 60 192 1.0 1.0 0.00 0.00 0.00 99 4100.7
20260904083035 60 197 0.0 0.0 0.00 0.00 0.00 99 4101.1
20260904082530 60 196 0.0 0.0 0.00 0.00 0.00 99 4101.1
20260904082025 60 196 0.0 0.0 0.00 0.00 0.00 99 4101.1
20260904081520 60 192 0.0 0.0 0.00 0.00 0.00 99 4100.7
20260904081016 60 193 0.0 0.0 0.00 0.00 0.00 99 4101.1
20260904080511 60 195 0.0 0.0 0.00 0.00 0.00 99 4101.1
20260904080007 60 194 0.0 0.0 0.00 0.00 0.00 99 4100.7
20260904075503 60 196 1.0 1.0 0.00 0.00 0.00 99 4101.1
20260904075003 60 195 0.0 1.0 0.00 0.00 0.00 99 4101.1
20260904074457 60 193 1.0 1.0 0.00 0.00 0.00 99 4100.7
20260904073952 59 193 1.0 1.0 0.00 0.00 0.00 99 4100.7
20260904073447 59 194 0.0 0.0 0.00 0.00 0.00 99 4100.7
20260904072943 60 194 0.0 0.0 0.00 0.00 0.00 99 4101.1
20260904072439 60 194 0.0 1.0 0.00 0.00 0.00 99 4101.1
20260904071938 59 194 0.0 0.0 0.00 0.00 0.00 99 4101.1
20260904071435 59 194 0.0 0.0 0.00 0.00 0.00 99 4100.7
20260904070929 59 206 2.0 2.0 0.00 0.00 0.00 99 4100.7
20260904070427 59 191 1.0 1.0 0.00 0.00 0.00 99 4100.7
20260904065922 59 193 1.0 1.0 0.00 0.00 0.00 99 4100.7
20260904065419 59 194 1.0 1.0 0.00 0.00 0.00 99 4100.7
20260904064918 59 194 0.0 1.0 0.00 0.00 0.00 99 4101.1
20260904064415 59 194 0.0 0.0 0.00 0.00 0.00 99 4101.1
20260904063910 59 194 0.0 0.0 0.00 0.00 0.00 99 4101.1
20260904063407 59 194 0.0 0.0 0.00 0.00 0.00 99 4101.1
20260904062901 59 194 0.0 0.0 0.00 0.00 0.00 99 4101.4
20260904062357 59 194 0.0 0.0 0.00 0.00 0.00 99 4101.4
20260904061853 59 194 1.0 1.0 0.00 0.00 0.00 99 4101.4
20260904061349 59 194 0.0 0.0 0.00 0.00 0.00 99 4101.7
20260904060845 60 194 0.0 0.0 0.00 0.00 0.00 99 4101.7
20260904060341 60 194 0.0 0.0 0.00 0.00 0.00 99 4101.7
20260904055835 60 194 0.0 0.0 0.00 0.00 0.00 99 4102.1
20260904055331 60 194 0.0 0.0 0.00 0.00 0.00 99 4101.7
20260904054826 60 194 0.0 0.0 0.00 0.00 0.00 99 4101.7
20260904054322 61 194 0.0 0.0 0.00 0.00 0.00 99 4101.7
20260904053818 61 195 0.0 0.0 0.00 0.00 0.00 99 4101.7
20260904053317 61 194 0.0 0.0 0.00 0.00 0.00 99 4101.7
20260904052813 61 194 0.0 0.0 0.00 0.00 0.00 99 4101.7
20260904052309 60 194 0.0 0.0 0.00 0.00 0.00 99 4102.1
20260904051806 60 194 0.0 0.0 0.00 0.00 0.00 99 4102.1
20260904051301 61 194 0.0 0.0 0.00 0.00 0.00 99 4101.7
20260904050756 61 194 0.0 0.0 0.00 0.00 0.00 99 4101.7
20260904050252 61 194 0.0 0.0 0.00 0.00 0.00 99 4101.7
20260904045747 61 194 0.0 0.0 0.00 0.00 0.00 99 4101.7
20260904045241 61 194 0.0 0.0 0.00 0.00 0.00 99 4102.1
20260904044736 61 194 0.0 0.0 0.00 0.00 0.00 99 4101.7
20260904044233 61 194 0.0 0.0 0.00 0.00 0.00 99 4101.7
20260904043729 61 194 0.0 0.0 0.00 0.00 0.00 99 4101.7
20260904043225 61 194 0.0 0.0 0.00 0.00 0.00 99 4101.7
20260904042720 61 194 0.0 0.0 0.00 0.00 0.00 99 4101.7
20260904042217 61 194 0.0 0.0 0.00 0.00 0.00 99 4102.1
20260904041715 61 194 0.0 0.0 0.00 0.00 0.00 99 4101.7
20260904041212 61 194 0.0 0.0 0.00 0.00 0.00 99 4102.1
20260904040708 61 194 0.0 0.0 0.00 0.00 0.00 99 4101.7
20260904040204 61 194 0.0 0.0 0.00 0.00 0.00 99 4101.7
20260904035659 61 194 0.0 1.0 0.00 0.00 0.00 99 4102.1
20260904035154 61 194 0.0 1.0 0.00 0.00 0.00 99 4101.7
20260904034653 60 194 1.0 1.0 0.00 0.00 0.00 99 4101.7
20260904034149 61 194 1.0 1.0 0.00 0.00 0.00 99 4101.7
20260904033645 61 194 1.0 1.0 0.00 0.00 0.00 99 4102.1
20260904033142 61 194 1.0 1.0 0.00 0.00 0.00 99 4101.7
20260904032637 61 194 1.0 1.0 0.00 0.00 0.00 99 4101.7
20260904032136 61 194 1.0 1.0 0.00 0.00 0.00 99 4101.7
20260904031636 61 194 1.0 2.0 0.00 0.00 0.00 99 4101.4
20260904031132 61 194 1.0 2.0 0.00 0.00 0.00 99 4101.4
20260904030627 61 193 2.0 2.0 0.00 0.00 0.00 99 4101.4
20260904030122 61 194 1.0 2.0 0.00 0.00 0.00 99 4101.4
20260904025618 61 194 1.0 2.0 0.00 0.00 0.00 99 4101.4
20260904025113 61 193 2.0 2.0 0.00 0.00 0.00 99 4101.4
20260904024608 61 194 2.0 2.0 0.00 0.00 0.00 99 4101.4
20260904024104 61 194 2.0 2.0 0.00 0.00 0.00 99 4101.4
20260904023600 62 194 1.0 2.0 0.00 0.00 0.00 99 4101.4
20260904023055 62 194 1.0 1.0 0.00 0.00 0.00 99 4101.4
20260904022550 62 194 1.0 1.0 0.00 0.00 0.00 99 4101.4
20260904022047 62 194 1.0 1.0 0.00 0.00 0.00 99 4101.4
20260904021542 62 194 1.0 1.0 0.00 0.00 0.00 99 4101.4
20260904021037 62 195 1.0 1.0 0.00 0.00 0.00 99 4101.4
20260904020532 62 194 1.0 1.0 0.00 0.00 0.00 99 4101.4
20260904020027 63 194 1.0 1.0 0.00 0.00 0.00 99 4101.7
20260904015521 63 195 1.0 1.0 0.00 0.00 0.00 99 4101.4
20260904015020 63 195 1.0 1.0 0.00 0.00 0.00 99 4101.1
20260904014514 63 195 1.0 1.0 0.00 0.00 0.00 99 4101.4
20260904014010 63 194 1.0 2.0 0.00 0.00 0.00 99 4101.4
20260904013506 63 195 0.0 1.0 0.00 0.00 0.00 99 4101.4
20260904013002 63 194 1.0 2.0 0.00 0.00 0.00 99 4101.4
20260904012502 64 194 1.0 1.0 0.00 0.00 0.00 99 4101.1
20260904011950 64 195 1.0 1.0 0.00 0.00 0.00 99 4101.1
20260904011446 64 195 1.0 1.0 0.00 0.00 0.00 99 4100.7
20260904010941 64 195 1.0 1.0 0.00 0.00 0.00 99 4101.1
20260904010437 64 195 1.0 1.0 0.00 0.00 0.00 99 4101.1
20260904005932 65 195 0.0 0.0 0.00 0.00 0.00 99 4100.7
20260904005428 65 195 0.0 0.0 0.00 0.00 0.00 99 4100.7
20260904004928 65 195 0.0 0.0 0.00 0.00 0.00 99 4100.7
20260904004424 65 195 0.0 0.0 0.00 0.00 0.00 98 4100.7
20260904003919 65 196 0.0 0.0 0.00 0.00 0.00 97 4100.7
20260904003414 65 196 0.0 0.0 0.00 0.00 0.00 97 4100.4
20260904002910 66 196 0.0 0.0 0.00 0.00 0.00 96 4100.4
20260904002407 66 196 0.0 0.0 0.00 0.00 0.00 94 4100.4
20260904001904 66 196 0.0 0.0 0.00 0.00 0.00 93 4100.4
20260904001401 67 196 0.0 0.0 0.00 0.00 0.00 93 4100.4
20260904000855 67 196 0.0 0.0 0.00 0.00 0.00 93 4100.4
20260904000355 68 196 0.0 0.0 0.00 0.00 0.00 92 4100.4
20260903235855 68 196 0.0 0.0 0.00 0.00 0.00 91 4100.4
20260903235351 69 196 0.0 0.0 0.00 0.00 0.00 90 4100.4
20260903234850 69 196 0.0 0.0 0.00 0.00 0.00 89 4100.4
20260903234346 69 195 0.0 0.0 0.00 0.00 0.00 87 4100.0
20260903233842 70 195 0.0 0.0 0.00 0.00 0.00 86 4100.0
20260903233338 71 195 0.0 0.0 0.00 0.00 0.00 84 4100.0
20260903232837 71 195 0.0 0.0 0.00 0.00 0.00 83 4100.0
20260903232333 71 195 0.0 0.0 0.00 0.00 0.00 82 4100.0
20260903231832 72 195 0.0 0.0 0.00 0.00 0.00 81 4100.0
20260903231328 72 195 0.0 0.0 0.00 0.00 0.00 80 4100.0
20260903230823 73 195 0.0 0.0 0.00 0.00 0.00 79 4100.0
20260903230318 73 195 0.0 0.0 0.00 0.00 0.00 77 4099.7
20260903225814 74 196 0.0 0.0 0.00 0.00 0.00 75 4099.7
20260903225310 75 196 0.0 0.0 0.00 0.00 0.00 73 4099.7
20260903224806 75 196 0.0 0.0 0.00 0.00 0.00 73 4099.4
20260903224302 75 196 0.0 0.0 0.00 0.00 0.00 72 4099.4
20260903223758 75 194 0.0 0.0 0.00 0.00 0.00 72 4099.4
20260903223256 76 195 0.0 0.0 0.00 0.00 0.00 71 4099.4
20260903222751 76 198 1.0 2.0 0.00 0.00 0.00 70 4099.4
20260903222250 77 189 1.0 1.0 0.00 0.00 0.00 70 4099.0
20260903221745 78 192 1.0 2.0 0.00 0.00 0.00 71 4099.4
20260903221244 79 193 1.0 1.0 0.00 0.00 0.00 69 4099.4
20260903220742 78 196 0.0 1.0 0.00 0.00 0.00 68 4099.4
20260903220237 78 188 0.0 1.0 0.00 0.00 0.00 69 4099.4
20260903215736 77 187 0.0 0.0 0.00 0.00 0.00 70 4099.4
20260903215232 76 187 0.0 0.0 0.00 0.00 0.00 72 4099.4
20260903214729 76 187 0.0 0.0 0.00 0.00 0.00 74 4099.4
20260903214220 76 187 1.0 2.0 0.00 0.00 0.00 76 4099.4